Weather History for Jonesboro, AR

Change the Weather History Date:

Monday, January 6, 2014

  Actual Average Record
Temperature  
Mean Temperature 11 °F 37 °F  
Max Temperature 14 °F 46 °F 70 °F (1895)
Min Temperature 7 °F 29 °F 4 °F (1924)
Degree Days  
Heating Degree Days 54 28  
Month to date heating degree days 217 168  
Since 1 July heating degree days 1777 1610  
Cooling Degree Days 0 0  
Month to date cooling degree days 0 0  
Year to date cooling degree days 0 0  
Moisture  
Dew Point -6 °F    
Average Humidity 67    
Maximum Humidity 91    
Minimum Humidity 42    
Precipitation  
Precipitation 0.00 in 0.10 in 3.50 in (1900)
Month to date precipitation 0.41 0.64  
Year to date precipitation 0.41 0.64  
Snow  
Snow 0.00 in - 6.20 in (1910)
Month to date snowfall T  
Since 1 July snowfall 1.0  
Snow Depth 0.00 in    
Sea Level Pressure  
Sea Level Pressure 30.56 in    
Wind  
Wind Speed 12 mph (NW)    
Max Wind Speed 22 mph    
Max Gust Speed 30 mph    
Visibility 10 miles    
Events      
T = Trace of Precipitation, MM = Missing Value Source: NWS Daily Summary

Daily Weather History Graph

Daily Weather History Graph

Search for Another Location

Airport:

Trip Planner

Search our weather history database for the weather conditions in past years. The results will help you decide how hot, cold, wet, or windy it might be!

Date:

Astronomy

Jan. 06, 2014 Rise Set
Actual Time 7:13 AM CST 5:03 PM CST
Civil Twilight 6:45 AM CST 5:32 PM CST
Nautical Twilight 6:13 AM CST 6:03 PM CST
Astronomical Twilight 5:42 AM CST 6:34 PM CST
Moon 10:41 AM CST (1/6) 11:23 PM CST (1/6)
Length of Visible Light 10h 47m
Length of Day
9h 50m
Waxing Crescent, 35% of the Moon is Illuminated
Jan 6
Waxing Crescent
Jan 7
First Quarter
Jan 15
Full
Jan 23
Last Quarter
Jan 30
New

Hourly Weather History & Observations

Time (CST) Temp. Windchill Dew Point Humidity Pressure Visibility Wind Dir Wind Speed Gust Speed Precip Events Conditions
12:53 AM 14.0 °F -2.5 °F - N/A% 30.40 in 10.0 mi NW 17.3 mph 26.5 mph N/A   Partly Cloudy
1:53 AM 12.0 °F -2.0 °F - N/A% 30.45 in 10.0 mi NW 11.5 mph 24.2 mph N/A   Partly Cloudy
2:53 AM 10.9 °F -4.7 °F - N/A% 30.48 in 10.0 mi NW 13.8 mph 21.9 mph N/A   Clear
3:53 AM 10.9 °F -0.8 °F - N/A% 30.49 in 10.0 mi NNW 8.1 mph 19.6 mph N/A   Clear
4:53 AM 9.0 °F -10.0 °F - N/A% 30.51 in 10.0 mi NNW 19.6 mph 26.5 mph N/A   Clear
5:53 AM 8.1 °F -7.0 °F - N/A% 30.53 in 10.0 mi NW 11.5 mph - N/A   Clear
6:53 AM 7.0 °F -5.7 °F - N/A% 30.55 in 10.0 mi NNW 8.1 mph - N/A   Clear
7:53 AM 8.1 °F -6.2 °F 7.0 °F 95% 30.57 in 10.0 mi NW 10.4 mph - N/A   Clear
8:53 AM 8.1 °F -9.6 °F - N/A% 30.60 in 10.0 mi NNW 16.1 mph 28.8 mph N/A   Clear
9:53 AM 9.0 °F -10.0 °F - N/A% 30.61 in 10.0 mi WNW 19.6 mph 26.5 mph N/A   Partly Cloudy
10:53 AM 10.9 °F -5.4 °F - N/A% 30.60 in 10.0 mi WNW 15.0 mph 20.7 mph N/A   Clear
11:53 AM 10.9 °F -5.4 °F -7.1 °F 44% 30.58 in 10.0 mi WNW 15.0 mph 23.0 mph N/A   Clear
12:53 PM 10.9 °F -7.0 °F -7.1 °F 44% 30.57 in 10.0 mi WNW 18.4 mph 27.6 mph N/A   Clear
1:53 PM 12.0 °F -5.1 °F -6.0 °F 44% 30.56 in 10.0 mi West 17.3 mph 24.2 mph N/A   Clear
2:53 PM 12.9 °F -2.8 °F -6.0 °F 43% 30.56 in 10.0 mi WNW 15.0 mph - N/A   Clear
3:53 PM 12.9 °F -0.2 °F -7.1 °F 41% 30.56 in 10.0 mi NW 10.4 mph - N/A   Clear
4:53 PM 12.0 °F -1.3 °F -6.0 °F 44% 30.56 in 10.0 mi WNW 10.4 mph - N/A   Clear
5:53 PM 12.0 °F 1.5 °F -6.0 °F 44% 30.57 in 10.0 mi WNW 6.9 mph - N/A   Clear
6:53 PM 10.9 °F 0.2 °F -5.1 °F 49% 30.58 in 10.0 mi WNW 6.9 mph - N/A   Clear
7:53 PM 10.0 °F 0.4 °F -4.0 °F 53% 30.60 in 10.0 mi NNW 5.8 mph - N/A   Clear
8:53 PM 10.0 °F -2.9 °F -8.0 °F 44% 30.63 in 10.0 mi NW 9.2 mph - N/A   Clear
9:53 PM 8.1 °F -5.3 °F -8.0 °F 48% 30.65 in 10.0 mi NNW 9.2 mph - N/A   Clear
10:53 PM 7.0 °F -1.7 °F -8.0 °F 51% 30.65 in 10.0 mi NW 4.6 mph - N/A   Clear
11:53 PM 7.0 °F - -8.0 °F 51% 30.63 in 10.0 mi Calm Calm - N/A   Clear